Regional Weather Roundup
Issued by NWS Jackson, KY

Home | Current Version | Previous Version | Text Only | Print | Product List | Glossary On
Versions: 1 2 3 4 5 6 7 8 9 10 11 12 13 14 15 16 17 18 19 20 21 22 23 24 25 26 27
000
ASUS43 KJKL 240010
RWRJKL

EAST KENTUCKY HOURLY WEATHER ROUNDUP
NATIONAL WEATHER SERVICE JACKSON KY
700 PM EST THU NOV 23 2017

NOTE: "FAIR" INDICATES FEW OR NO CLOUDS BELOW 12,000 FEET WITH
NO SIGNIFICANT WEATHER AND/OR OBSTRUCTIONS TO VISIBILITY.

* THESE REPORTS ARE NOT UNDER NWS QUALITY CONTROL AND MAY NOT
  REPORT WEATHER SUCH AS PRECIPITATION AND FOG.

KYZ079-080-083-085-087-088-110-112-115-119-120-240100
...EASTERN KENTUCKY...

CITY           SKY/WX    TMP DP  RH WIND       PRES   REMARKS
JACKSON        CLEAR     44  19  36 CALM      30.03S
6HR MIN TEMP:  43; 6HR MAX TEMP:  49;

LONDON         CLEAR     39  25  57 CALM      30.03F
6HR MIN TEMP:  39; 6HR MAX TEMP:  51;

SOMERSET*      CLEAR     37  23  56 CALM      30.05F
MONTICELLO*    CLEAR     33  27  78 CALM      30.06S
6HR MIN TEMP:  32; 6HR MAX TEMP:  52;

WILLIAMSBURG*  CLEAR     41  21  45 CALM      30.04R
MIDDLESBORO*   CLEAR     40  32  72 CALM      30.05R
6HR MIN TEMP:  40; 6HR MAX TEMP:  55;

HARLAN APT*    CLEAR     43  23  45 CALM      30.03S
PIKE CO APT*     N/A     42  21  42 N3        30.03S
BIG SANDY APT* CLEAR     40  24  53 CALM      30.04S
6HR MIN TEMP:  39; 6HR MAX TEMP:  48;

MOREHEAD APT*  CLEAR     41  19  42 CALM      30.06S
$$

KYZ035-036-041-042-044-050-067-078-099-240100
...CENTRAL KENTUCKY...

CITY           SKY/WX    TMP DP  RH WIND       PRES   REMARKS
MT STERLING*   CLEAR     36  25  64 CALM      30.05F
DANVILLE*      CLEAR     36  27  69 CALM      30.05S
LEXINGTON      CLEAR     40  22  48 SE5       30.03F
6HR MIN TEMP:  40; 6HR MAX TEMP:  48;

FRANKFORT      CLEAR     37  24  59 CALM      30.03R
6HR MIN TEMP:  36; 6HR MAX TEMP:  48;

LOUISVILLE     CLEAR     45  25  45 S5        30.02F
6HR MIN TEMP:  44; 6HR MAX TEMP:  49;

LEBANON*         N/A     41  21  45 CALM      30.04S
GLASGOW*       CLEAR     38  26  60 CALM      30.04F
BOWLING GREEN  CLEAR     42  25  50 CALM      30.05S
6HR MIN TEMP:  41; 6HR MAX TEMP:  52;

$$

KYZ091>093-OHZ055-061-077-WVZ005-015-034-035-042-240100
...SOUTHERN OHIO/WEST VIRGINIA...

CITY           SKY/WX    TMP DP  RH WIND       PRES   REMARKS
COVINGTON      CLEAR     37  26  64 S5        30.02S WCI  33
COLUMBUS       CLEAR     37  25  61 S3        30.02F
DAYTON         CLEAR     35  25  66 S7        30.00F WCI  29
WILMINGTON     CLEAR     34  26  72 S7        30.01F WCI  28
HUNTINGTON     CLEAR     38  23  55 CALM      30.05S
CHARLESTON     CLEAR     38  22  52 CALM      30.04S
PINEVILLE*       N/A     31  23  71 MISG      30.07R
BECKLEY        CLEAR     35  17  47 CALM      30.00S
BLUEFIELD      CLEAR     39   9  29 CALM      30.01S
LOGAN CO APT*    N/A     41  21  45 CALM      30.03R
$$

VAZ002-007-008-TNZ017-027-036-066-071-240100
...SOUTHWEST VIRGINIA/EAST TENNESSEE...

CITY           SKY/WX    TMP DP  RH WIND       PRES   REMARKS
WISE*          CLEAR     43  21  42 CALM      30.02S
JONESVILLE*      N/A     37  30  75 CALM      30.05R
ABINGDON*      CLEAR     42  32  69 CALM      30.02R
BRISTOL        PTCLDY    42  32  67 CALM      30.02R
MORRISTOWN*    PTCLDY    45  32  61 CALM      30.02S
SEVIERVILLE*   PTCLDY    43  32  65 CALM      30.03R
KNOXVILLE      CLEAR     47  33  58 CALM      30.02R
LAFOLLETTE*    CLEAR     39  32  75 CALM      30.06S
OAK RIDGE      CLEAR     44  35  70 CALM      30.04R
CROSSVILLE     CLEAR     43  29  57 CALM      30.02R
NASHVILLE      CLEAR     46  19  34 CALM      30.04S
$$

...KEY TO REMARKS...
VSB - VISIBILITY IN MILES
WCI - WIND CHILL INDEX
HX  - HEAT INDEX

$$




USA.gov is the U.S. government's official web portal to all federal, state and local government web resources and services.